Overview Statistics Trail Chart Weather Telemetry Raw packets
 

This is the latest recevied weather packets stored in our database for station/object VK6WB. If no packets are shown the sender has not sent any weather packets the latest 10 day(s).

<< 25 26 27 28 29 30 31 >>
Time Temp. Humidity Pressure Rain* Wind** Luminosity Snow
1777209005 19.44° C 60% 1010.3 hPa 0 mm - 426 W/m² -
1777208405 20° C 60% 1010.5 hPa 0 mm - 426 W/m² -
1777207804 20° C 59% 1010.5 hPa 0 mm - 478 W/m² -
1777207205 20° C 58% 1010.6 hPa 0 mm - 478 W/m² -
1777206605 20° C 57% 1010.6 hPa 0 mm - 478 W/m² -
1777206004 20.56° C 58% 1010.5 hPa 0 mm - 478 W/m² -
1777205404 20.56° C 58% 1010.7 hPa 0 mm - 478 W/m² -
1777204805 20.56° C 57% 1010.5 hPa 0 mm - 478 W/m² -
1777204205 20.56° C 57% 1010.5 hPa 0 mm - 530 W/m² -
1777203605 20.56° C 57% 1010.6 hPa 0 mm - 530 W/m² -
1777203005 20.56° C 57% 1010.7 hPa 0 mm - 530 W/m² -
1777202405 20.56° C 57% 1010.7 hPa 0 mm - 530 W/m² -
1777201805 20.56° C 56% 1010.6 hPa 0 mm - 530 W/m² -
1777201205 20.56° C 56% 1010.5 hPa 0 mm - 530 W/m² -
1777200605 21.11° C 54% 1010.7 hPa 0 mm - 530 W/m² -
1777200005 21.11° C 51% 1010.5 hPa 0 mm - 530 W/m² -
1777199405 21.67° C 47% 1010.7 hPa 0 mm - 478 W/m² -
1777198804 26.67° C 42% 1010.6 hPa 0 mm - 478 W/m² -
1777198205 22.78° C 39% 1010.8 hPa 0 mm - 479 W/m² -
1777197605 22.22° C 38% 1010.8 hPa 0 mm - 479 W/m² -
1777197005 22.22° C 39% 1010.9 hPa 0 mm - 427 W/m² -
1777196404 22.78° C 39% 1010.7 hPa 0 mm - 530 W/m² -
1777195805 23.33° C 37% 1010.9 hPa 0 mm - 530 W/m² -
1777195204 23.33° C 36% 1011.1 hPa 0 mm - 530 W/m² -
1777194605 23.89° C 34% 1011.1 hPa 0 mm - 530 W/m² -

* Rain latest hour (hover to see other rain measurements)
** Current wind speed in m/s (hover to see current wind gust speed)